Glendale Luke AFB, AZ

7:14 AM MST on November 12, 2019 (GMT -0700)
Luke Air Force Base

Weather History for KLUF - September, 2019

Change the Weather History Date:

Friday, September 6, 2019

  Actual Average Record
Temperature  
Mean Temperature 97 °F -  
Max Temperature 107 °F 102 °F 112 °F (1945)
Min Temperature 87 °F 70 °F 60 °F (1985)
Cooling Degree Days 32    
Growing Degree Days 47 (Base 50)    
Moisture  
Dew Point 60 °F    
Average Humidity 29    
Maximum Humidity 44    
Minimum Humidity 19    
Precipitation  
Precipitation 0.00 in - - ()
Sea Level Pressure  
Sea Level Pressure 29.83 in    
Wind  
Wind Speed 8 mph (SW)    
Max Wind Speed 16 mph    
Max Gust Speed 22 mph    
Visibility 10 miles    
Events      
Averages and records for this station are not official NWS values.
T = Trace of Precipitation, MM = Missing Value Source: NWS Daily Summary

Daily Weather History Graph

Daily Weather History Graph

Search for Another Location

Airport or City:

Astronomy

Sep. 06, 2019 Rise Set
Actual Time 6:06 AM MST 6:48 PM MST
Civil Twilight 5:41 AM MST 7:13 PM MST
Nautical Twilight 5:11 AM MST 7:43 PM MST
Astronomical Twilight 4:41 AM MST 8:13 PM MST
Moon 1:56 PM MST (9/6) No Moon Set
Length of Visible Light 13h 31m
Length of Day
12h 41m
First Quarter, 57% of the Moon is Illuminated
Sep 6
First Quarter
Sep 13
Full
Sep 21
Last Quarter
Sep 28
New
Oct 5
First Quarter

Hourly Weather History & Observations

Time (MST) Temp. Heat Index Dew Point Humidity Pressure Visibility Wind Dir Wind Speed Gust Speed Precip Events Conditions
12:58 AM 92.7 °F 93.2 °F 62.4 °F 36% 29.85 in 10.0 mi SW 9.2 mph - N/A   Clear
1:58 AM 91.8 °F 90.9 °F 58.5 °F 33% 29.85 in 10.0 mi SW 11.5 mph - N/A   Clear
2:58 AM 91.6 °F 90.7 °F 58.3 °F 33% 29.85 in 10.0 mi West 9.2 mph - N/A   Clear
3:58 AM 91.8 °F 91.2 °F 60.1 °F 34% 29.85 in 10.0 mi WSW 5.8 mph - N/A   Clear
4:58 AM 88.3 °F 89.5 °F 63.7 °F 44% 29.86 in 10.0 mi NNW 3.5 mph - N/A   Clear
5:58 AM 88.3 °F 89.5 °F 63.7 °F 44% 29.88 in 10.0 mi Calm Calm - N/A   Clear
6:58 AM 87.6 °F 88.5 °F 63.5 °F 44% 29.91 in 10.0 mi Calm Calm - N/A   Clear
7:58 AM 90.1 °F 89.9 °F 60.3 °F 37% 29.91 in 10.0 mi West 6.9 mph - N/A   Clear
8:58 AM 94.5 °F 93.3 °F 57.2 °F 29% 29.92 in 10.0 mi NNW 4.6 mph - N/A   Clear
9:58 AM 96.8 °F 96.7 °F 59.2 °F 29% 29.91 in 10.0 mi Calm Calm - N/A   Clear
10:58 AM 98.1 °F 98.1 °F 60.3 °F 28% 29.91 in 10.0 mi SSE 4.6 mph - N/A   Clear
11:58 AM 100.8 °F 102.4 °F 62.6 °F 28% 29.89 in 10.0 mi SW 10.4 mph - N/A   Clear
12:58 PM 101.8 °F 104.3 °F 62.6 °F 28% 29.86 in 10.0 mi SSW 10.4 mph - N/A   Clear
1:58 PM 105.3 °F 108.1 °F 62.2 °F 25% 29.83 in 10.0 mi SSW 12.7 mph 16.1 mph N/A   Clear
2:28 PM 105.8 °F 106.8 °F 59.0 °F 22% 29.81 in 10.0 mi SW 13.8 mph - N/A   Clear
2:55 PM 107.6 °F 108.2 °F 59.0 °F 20% 29.80 in 10.0 mi South 13.8 mph 19.6 mph N/A   Clear
2:58 PM 106.7 °F 107.5 °F 58.5 °F 21% 29.80 in 10.0 mi South 12.7 mph - N/A   Clear
3:02 PM 107.6 °F 107.5 °F 57.2 °F 19% 29.80 in 10.0 mi SW 16.1 mph 21.9 mph N/A   Clear
3:58 PM 106.9 °F 107.8 °F 58.6 °F 21% 29.78 in 10.0 mi WSW 11.5 mph 18.4 mph N/A   Clear
4:58 PM 106.2 °F 106.7 °F 58.1 °F 21% 29.76 in 10.0 mi SW 12.7 mph - N/A   Clear
5:58 PM 105.4 °F 105.6 °F 57.4 °F 21% 29.76 in 10.0 mi West 12.7 mph - N/A   Clear
6:58 PM 102.6 °F 102.4 °F 57.6 °F 23% 29.76 in 10.0 mi West 6.9 mph - N/A   Clear
7:58 PM 100.6 °F 100.5 °F 58.3 °F 25% 29.78 in 10.0 mi WSW 8.1 mph - N/A   Clear
8:58 PM 99.3 °F 98.6 °F 57.2 °F 25% 29.79 in 10.0 mi WSW 10.4 mph - N/A   Clear
9:58 PM 99.5 °F 98.0 °F 55.0 °F 23% 29.80 in 10.0 mi WSW 9.2 mph - N/A   Mostly Cloudy
10:58 PM 97.5 °F 97.3 °F 58.8 °F 28% 29.79 in 10.0 mi WSW 11.5 mph - N/A   Clear
11:58 PM 95.7 °F 95.1 °F 58.3 °F 29% 29.79 in 10.0 mi SW 6.9 mph - N/A   Scattered Clouds